Time,TemperatureF,DewpointF,PressureIn,WindDirection,WindDirectionDegrees,WindSpeedMPH,WindSpeedGustMPH,Humidity,HourlyPrecipIn,Conditions,Clouds,dailyrainin,SoftwareType,DateUTC
2013-06-21 00:01:00,65.8,54.5,30.27,SSE,167,0.0,1.0,67,0.00,,,0.00,meteohub,2013-06-21 04:01:00,
2013-06-21 00:02:00,65.8,54.5,30.27,SSE,167,0.0,1.0,67,0.00,,,0.00,meteohub,2013-06-21 04:02:00,
2013-06-21 00:07:00,65.7,54.3,30.27,SSE,166,0.0,2.0,67,0.00,,,0.00,meteohub,2013-06-21 04:07:00,
2013-06-21 00:12:00,65.5,54.7,30.28,SSE,166,0.0,2.0,68,0.00,,,0.00,meteohub,2013-06-21 04:12:00,
2013-06-21 00:17:00,65.3,54.9,30.28,SSE,166,0.0,2.0,69,0.00,,,0.00,meteohub,2013-06-21 04:17:00,
2013-06-21 00:22:00,65.1,54.3,30.28,SSE,158,0.0,1.0,68,0.00,,,0.00,meteohub,2013-06-21 04:22:00,
2013-06-21 00:27:00,64.9,54.1,30.28,SSE,158,0.0,1.0,68,0.00,,,0.00,meteohub,2013-06-21 04:27:00,
2013-06-21 00:32:00,64.8,54.3,30.28,SSE,158,0.0,1.0,69,0.00,,,0.00,meteohub,2013-06-21 04:32:00,
2013-06-21 00:37:00,64.6,54.1,30.28,SSE,158,0.0,1.0,69,0.00,,,0.00,meteohub,2013-06-21 04:37:00,
2013-06-21 00:42:00,64.6,54.5,30.28,SSE,158,0.0,0.0,70,0.00,,,0.00,meteohub,2013-06-21 04:42:00,
2013-06-21 00:47:00,64.2,54.3,30.28,SSE,158,0.0,0.0,70,0.00,,,0.00,meteohub,2013-06-21 04:47:00,
2013-06-21 00:52:00,64.2,54.7,30.28,SSE,158,0.0,0.0,71,0.00,,,0.00,meteohub,2013-06-21 04:52:00,
2013-06-21 00:57:00,64.0,54.5,30.28,SSE,158,0.0,0.0,71,0.00,,,0.00,meteohub,2013-06-21 04:57:00,
2013-06-21 01:02:00,63.9,54.3,30.28,SSE,158,0.0,0.0,71,0.00,,,0.00,meteohub,2013-06-21 05:02:00,
2013-06-21 01:07:00,63.7,54.1,30.29,SSE,158,0.0,0.0,71,0.00,,,0.00,meteohub,2013-06-21 05:07:00,
2013-06-21 01:12:00,63.7,54.1,30.29,SSE,158,0.0,0.0,71,0.00,,,0.00,meteohub,2013-06-21 05:12:00,
2013-06-21 01:17:00,63.3,54.1,30.29,SSE,158,0.0,0.0,72,0.00,,,0.00,meteohub,2013-06-21 05:17:00,
2013-06-21 01:22:00,63.1,54.3,30.29,SSE,158,0.0,0.0,73,0.00,,,0.00,meteohub,2013-06-21 05:22:00,
2013-06-21 01:27:00,63.0,54.1,30.29,SSE,158,0.0,0.0,73,0.00,,,0.00,meteohub,2013-06-21 05:27:00,
2013-06-21 01:32:00,62.8,54.0,30.29,SSE,158,0.0,0.0,73,0.00,,,0.00,meteohub,2013-06-21 05:32:00,
2013-06-21 01:37:00,62.8,54.3,30.29,SSE,158,0.0,0.0,74,0.00,,,0.00,meteohub,2013-06-21 05:37:00,
2013-06-21 01:42:00,62.6,54.1,30.30,SSE,158,0.0,0.0,74,0.00,,,0.00,meteohub,2013-06-21 05:42:00,
2013-06-21 01:48:00,62.4,54.3,30.30,SSE,158,0.0,0.0,75,0.00,,,0.00,meteohub,2013-06-21 05:48:00,
2013-06-21 01:53:00,62.2,54.5,30.30,SSE,158,0.0,0.0,76,0.00,,,0.00,meteohub,2013-06-21 05:53:00,
2013-06-21 01:58:00,62.1,54.3,30.30,SSE,158,0.0,0.0,76,0.00,,,0.00,meteohub,2013-06-21 05:58:00,
2013-06-21 02:03:00,61.9,54.7,30.30,SSE,158,0.0,0.0,77,0.00,,,0.00,meteohub,2013-06-21 06:03:00,
2013-06-21 02:08:00,61.9,54.7,30.30,SSE,158,0.0,0.0,77,0.00,,,0.00,meteohub,2013-06-21 06:08:00,
2013-06-21 02:13:00,61.7,54.5,30.30,SSE,158,0.0,0.0,77,0.00,,,0.00,meteohub,2013-06-21 06:13:00,
2013-06-21 02:18:00,61.5,54.3,30.30,SSE,158,0.0,0.0,77,0.00,,,0.00,meteohub,2013-06-21 06:18:00,
2013-06-21 02:23:00,61.3,54.5,30.30,SSE,158,0.0,0.0,78,0.00,,,0.00,meteohub,2013-06-21 06:23:00,
2013-06-21 02:28:00,61.2,54.3,30.30,SSE,158,0.0,0.0,78,0.00,,,0.00,meteohub,2013-06-21 06:28:00,
2013-06-21 02:33:00,61.2,54.7,30.30,SSE,158,0.0,0.0,79,0.00,,,0.00,meteohub,2013-06-21 06:33:00,
2013-06-21 02:38:00,61.0,54.7,30.30,SSE,158,0.0,0.0,80,0.00,,,0.00,meteohub,2013-06-21 06:38:00,
2013-06-21 02:43:00,60.8,54.7,30.30,SSE,158,0.0,0.0,80,0.00,,,0.00,meteohub,2013-06-21 06:43:00,
2013-06-21 02:48:00,60.6,54.5,30.30,SSE,158,0.0,0.0,80,0.00,,,0.00,meteohub,2013-06-21 06:48:00,
2013-06-21 02:53:00,60.4,54.3,30.30,SSE,158,0.0,0.0,80,0.00,,,0.00,meteohub,2013-06-21 06:53:00,
2013-06-21 02:58:00,60.3,54.1,30.29,SSE,158,0.0,0.0,80,0.00,,,0.00,meteohub,2013-06-21 06:58:00,
2013-06-21 03:03:00,60.3,54.1,30.29,SSE,158,0.0,0.0,80,0.00,,,0.00,meteohub,2013-06-21 07:03:00,
2013-06-21 03:08:00,60.1,54.0,30.29,SSE,158,0.0,0.0,80,0.00,,,0.00,meteohub,2013-06-21 07:08:00,
2013-06-21 03:13:00,59.9,54.1,30.29,SSE,158,0.0,0.0,81,0.00,,,0.00,meteohub,2013-06-21 07:13:00,
2013-06-21 03:18:00,59.7,54.0,30.29,SSE,158,0.0,0.0,81,0.00,,,0.00,meteohub,2013-06-21 07:18:00,
2013-06-21 03:23:00,59.7,54.0,30.29,SSE,158,0.0,0.0,81,0.00,,,0.00,meteohub,2013-06-21 07:23:00,
2013-06-21 03:28:00,59.5,54.0,30.28,SSE,158,0.0,0.0,82,0.00,,,0.00,meteohub,2013-06-21 07:28:00,
2013-06-21 03:33:00,59.5,54.0,30.28,SSE,158,0.0,0.0,82,0.00,,,0.00,meteohub,2013-06-21 07:33:00,
2013-06-21 03:38:00,59.5,54.3,30.28,SSE,158,0.0,0.0,83,0.00,,,0.00,meteohub,2013-06-21 07:38:00,
2013-06-21 03:43:00,59.4,54.1,30.28,SSE,158,0.0,0.0,83,0.00,,,0.00,meteohub,2013-06-21 07:43:00,
2013-06-21 03:49:00,59.4,54.1,30.28,SSE,158,0.0,0.0,83,0.00,,,0.00,meteohub,2013-06-21 07:49:00,
2013-06-21 03:54:00,59.2,54.0,30.28,SSE,158,0.0,0.0,83,0.00,,,0.00,meteohub,2013-06-21 07:54:00,
2013-06-21 03:59:00,59.2,54.0,30.28,SSE,158,0.0,0.0,83,0.00,,,0.00,meteohub,2013-06-21 07:59:00,
2013-06-21 04:04:00,59.0,54.1,30.28,SSE,158,0.0,0.0,84,0.00,,,0.00,meteohub,2013-06-21 08:04:00,
2013-06-21 04:09:00,58.8,54.0,30.28,SSE,158,0.0,0.0,84,0.00,,,0.00,meteohub,2013-06-21 08:09:00,
2013-06-21 04:14:00,58.8,54.0,30.28,SSE,158,0.0,0.0,84,0.00,,,0.00,meteohub,2013-06-21 08:14:00,
2013-06-21 04:19:00,58.8,54.7,30.28,SSE,158,0.0,0.0,86,0.00,,,0.00,meteohub,2013-06-21 08:19:00,
2013-06-21 04:24:00,58.8,54.7,30.28,SSE,158,0.0,0.0,86,0.00,,,0.00,meteohub,2013-06-21 08:24:00,
2013-06-21 04:29:00,58.6,54.5,30.27,SSE,158,0.0,0.0,86,0.00,,,0.00,meteohub,2013-06-21 08:29:00,
2013-06-21 04:34:00,58.6,54.5,30.27,SSE,158,0.0,0.0,86,0.00,,,0.00,meteohub,2013-06-21 08:34:00,
2013-06-21 04:39:00,58.6,54.1,30.27,SSE,158,0.0,0.0,85,0.00,,,0.00,meteohub,2013-06-21 08:39:00,
2013-06-21 04:44:00,58.5,54.3,30.27,SSE,158,0.0,0.0,86,0.00,,,0.00,meteohub,2013-06-21 08:44:00,
2013-06-21 04:49:00,58.5,54.9,30.27,SSE,158,0.0,0.0,88,0.00,,,0.00,meteohub,2013-06-21 08:49:00,
2013-06-21 04:54:00,58.5,54.9,30.27,SSE,158,0.0,0.0,88,0.00,,,0.00,meteohub,2013-06-21 08:54:00,
2013-06-21 04:59:00,58.5,54.7,30.27,SSE,158,0.0,0.0,87,0.00,,,0.00,meteohub,2013-06-21 08:59:00,
2013-06-21 05:04:00,58.5,54.7,30.27,SSE,158,0.0,0.0,87,0.00,,,0.00,meteohub,2013-06-21 09:04:00,
2013-06-21 05:09:00,58.3,54.7,30.28,SSE,158,0.0,0.0,88,0.00,,,0.00,meteohub,2013-06-21 09:09:00,
2013-06-21 05:14:00,58.3,54.7,30.28,SSE,158,0.0,0.0,88,0.00,,,0.00,meteohub,2013-06-21 09:14:00,
2013-06-21 05:19:00,58.3,55.0,30.28,SSE,158,0.0,0.0,89,0.00,,,0.00,meteohub,2013-06-21 09:19:00,
2013-06-21 05:24:00,58.3,54.7,30.29,SSE,158,0.0,0.0,88,0.00,,,0.00,meteohub,2013-06-21 09:24:00,
2013-06-21 05:29:00,58.3,54.7,30.28,SSE,158,0.0,0.0,88,0.00,,,0.00,meteohub,2013-06-21 09:29:00,
2013-06-21 05:34:00,58.1,54.5,30.28,SSE,158,0.0,0.0,88,0.00,,,0.00,meteohub,2013-06-21 09:34:00,
2013-06-21 05:39:00,58.1,55.2,30.28,SSE,158,0.0,0.0,90,0.00,,,0.00,meteohub,2013-06-21 09:39:00,
2013-06-21 05:44:00,58.1,55.2,30.28,SSE,158,0.0,0.0,90,0.00,,,0.00,meteohub,2013-06-21 09:44:00,
2013-06-21 05:49:00,58.3,55.9,30.28,SSE,158,0.0,0.0,92,0.00,,,0.00,meteohub,2013-06-21 09:49:00,
2013-06-21 05:54:00,58.3,56.3,30.28,SSE,158,0.0,0.0,93,0.00,,,0.00,meteohub,2013-06-21 09:54:00,
2013-06-21 05:59:00,58.5,56.5,30.28,SSE,158,0.0,0.0,93,0.00,,,0.00,meteohub,2013-06-21 09:59:00,
2013-06-21 06:05:00,58.5,56.1,30.29,SSE,158,0.0,0.0,92,0.00,,,0.00,meteohub,2013-06-21 10:05:00,
2013-06-21 06:10:00,58.3,55.9,30.29,SSE,158,0.0,0.0,92,0.00,,,0.00,meteohub,2013-06-21 10:10:00,
2013-06-21 06:15:00,58.3,55.9,30.29,SSE,158,0.0,0.0,92,0.00,,,0.00,meteohub,2013-06-21 10:15:00,
2013-06-21 06:20:00,58.1,55.4,30.29,SSE,158,0.0,0.0,91,0.00,,,0.00,meteohub,2013-06-21 10:20:00,
2013-06-21 06:25:00,57.9,55.2,30.30,SSE,158,0.0,0.0,91,0.00,,,0.00,meteohub,2013-06-21 10:25:00,
2013-06-21 06:30:00,57.7,55.2,30.30,SSE,158,0.0,0.0,91,0.00,,,0.00,meteohub,2013-06-21 10:30:00,
2013-06-21 06:35:00,57.7,55.2,30.30,SSE,158,0.0,0.0,91,0.00,,,0.00,meteohub,2013-06-21 10:35:00,
2013-06-21 06:40:00,57.7,55.2,30.30,SSE,158,0.0,0.0,91,0.00,,,0.00,meteohub,2013-06-21 10:40:00,
2013-06-21 06:45:00,57.6,55.0,30.30,SSE,158,0.0,0.0,91,0.00,,,0.00,meteohub,2013-06-21 10:45:00,
2013-06-21 06:50:00,57.6,55.2,30.30,SSE,158,0.0,0.0,92,0.00,,,0.00,meteohub,2013-06-21 10:50:00,
2013-06-21 06:55:00,57.6,55.2,30.30,SSE,158,0.0,0.0,92,0.00,,,0.00,meteohub,2013-06-21 10:55:00,
2013-06-21 07:00:00,57.7,55.4,30.30,SSE,158,0.0,0.0,92,0.00,,,0.00,meteohub,2013-06-21 11:00:00,
2013-06-21 07:05:00,57.7,55.4,30.30,SSE,158,0.0,0.0,92,0.00,,,0.00,meteohub,2013-06-21 11:05:00,
2013-06-21 07:10:00,57.9,55.6,30.30,SSE,158,0.0,0.0,92,0.00,,,0.00,meteohub,2013-06-21 11:10:00,
2013-06-21 07:15:00,57.9,55.6,30.31,SSE,158,0.0,0.0,92,0.00,,,0.00,meteohub,2013-06-21 11:15:00,
2013-06-21 07:20:00,58.3,55.9,30.31,SSE,158,0.0,0.0,92,0.00,,,0.00,meteohub,2013-06-21 11:20:00,
2013-06-21 07:25:00,58.6,56.7,30.31,SSE,158,0.0,0.0,93,0.00,,,0.00,meteohub,2013-06-21 11:25:00,
2013-06-21 07:30:00,59.0,57.0,30.31,SSE,158,0.0,0.0,93,0.00,,,0.00,meteohub,2013-06-21 11:30:00,
2013-06-21 07:35:00,59.4,57.4,30.31,SSE,158,0.0,0.0,93,0.00,,,0.00,meteohub,2013-06-21 11:35:00,
2013-06-21 07:40:00,59.5,57.6,30.31,SSE,158,0.0,0.0,93,0.00,,,0.00,meteohub,2013-06-21 11:40:00,
2013-06-21 07:45:00,59.9,58.1,30.31,SSE,158,0.0,0.0,94,0.00,,,0.00,meteohub,2013-06-21 11:45:00,
2013-06-21 07:50:00,60.3,58.3,30.32,SE,131,0.0,0.0,93,0.00,,,0.00,meteohub,2013-06-21 11:50:00,
2013-06-21 07:55:00,60.4,57.7,30.32,SE,131,0.0,0.0,91,0.00,,,0.00,meteohub,2013-06-21 11:55:00,
2013-06-21 08:00:00,61.0,57.7,30.32,SE,131,0.0,0.0,89,0.00,,,0.00,meteohub,2013-06-21 12:00:00,
2013-06-21 08:05:00,61.3,57.4,30.32,SE,131,0.0,0.0,87,0.00,,,0.00,meteohub,2013-06-21 12:05:00,
2013-06-21 08:10:00,61.5,57.6,30.32,ENE,71,0.0,0.0,87,0.00,,,0.00,meteohub,2013-06-21 12:10:00,
2013-06-21 08:15:00,61.9,56.7,30.32,SW,227,0.0,0.0,83,0.00,,,0.00,meteohub,2013-06-21 12:15:00,
2013-06-21 08:20:00,62.2,56.7,30.32,SW,227,0.0,0.0,82,0.00,,,0.00,meteohub,2013-06-21 12:20:00,
2013-06-21 08:26:00,62.8,57.2,30.32,SW,227,0.0,0.0,82,0.00,,,0.00,meteohub,2013-06-21 12:26:00,
2013-06-21 08:31:00,63.3,57.7,30.32,SW,227,0.0,0.0,82,0.00,,,0.00,meteohub,2013-06-21 12:31:00,
2013-06-21 08:36:00,64.2,56.1,30.32,SW,227,1.0,1.0,75,0.00,,,0.00,meteohub,2013-06-21 12:36:00,
2013-06-21 08:41:00,66.0,56.7,30.32,SW,227,0.0,1.0,72,0.00,,,0.00,meteohub,2013-06-21 12:41:00,
2013-06-21 08:46:00,67.1,56.7,30.32,SW,227,0.0,1.0,69,0.00,,,0.00,meteohub,2013-06-21 12:46:00,
2013-06-21 08:51:00,67.8,54.7,30.32,SW,227,0.0,2.0,63,0.00,,,0.00,meteohub,2013-06-21 12:51:00,
2013-06-21 08:56:00,68.5,55.0,30.31,SW,226,0.0,2.0,62,0.00,,,0.00,meteohub,2013-06-21 12:56:00,
2013-06-21 09:01:00,69.6,55.6,30.31,SW,227,0.0,2.0,61,0.00,,,0.00,meteohub,2013-06-21 13:01:00,
2013-06-21 09:06:00,70.3,56.7,30.31,West,265,0.0,2.0,62,0.00,,,0.00,meteohub,2013-06-21 13:06:00,
2013-06-21 09:11:00,71.1,55.9,30.31,SSW,192,1.0,2.0,59,0.00,,,0.00,meteohub,2013-06-21 13:11:00,
2013-06-21 09:16:00,71.4,55.9,30.31,South,185,4.0,4.0,58,0.00,,,0.00,meteohub,2013-06-21 13:16:00,
2013-06-21 09:21:00,72.1,54.5,30.31,SSE,150,1.0,4.0,54,0.00,,,0.00,meteohub,2013-06-21 13:21:00,
2013-06-21 09:26:00,72.3,55.8,30.31,SSE,150,0.0,4.0,56,0.00,,,0.00,meteohub,2013-06-21 13:26:00,
2013-06-21 09:31:00,72.7,56.1,30.31,SSE,155,0.0,4.0,56,0.00,,,0.00,meteohub,2013-06-21 13:31:00,
2013-06-21 09:36:00,73.4,55.2,30.31,South,179,0.0,2.0,53,0.00,,,0.00,meteohub,2013-06-21 13:36:00,
2013-06-21 09:41:00,73.6,55.9,30.30,WSW,250,1.0,2.0,54,0.00,,,0.00,meteohub,2013-06-21 13:41:00,
2013-06-21 09:46:00,73.6,57.4,30.30,WSW,250,0.0,2.0,57,0.00,,,0.00,meteohub,2013-06-21 13:46:00,
2013-06-21 09:51:00,73.9,56.3,30.30,ENE,57,1.0,3.0,54,0.00,,,0.00,meteohub,2013-06-21 13:51:00,
2013-06-21 09:56:00,74.1,57.9,30.30,SSW,205,1.0,3.0,57,0.00,,,0.00,meteohub,2013-06-21 13:56:00,
2013-06-21 10:01:00,75.0,56.7,30.30,ESE,121,0.0,3.0,53,0.00,,,0.00,meteohub,2013-06-21 14:01:00,
2013-06-21 10:07:00,75.7,56.3,30.30,South,186,1.0,3.0,51,0.00,,,0.00,meteohub,2013-06-21 14:07:00,
2013-06-21 10:12:00,76.3,59.0,30.30,South,185,1.0,5.0,55,0.00,,,0.00,meteohub,2013-06-21 14:12:00,
2013-06-21 10:17:00,76.6,59.2,30.30,South,186,2.0,5.0,55,0.00,,,0.00,meteohub,2013-06-21 14:17:00,
2013-06-21 10:22:00,77.4,58.8,30.30,East,95,1.0,5.0,53,0.00,,,0.00,meteohub,2013-06-21 14:22:00,
2013-06-21 10:27:00,77.7,58.1,30.30,SSE,158,3.0,5.0,51,0.00,,,0.00,meteohub,2013-06-21 14:27:00,
2013-06-21 10:32:00,77.9,56.1,30.30,ESE,105,1.0,5.0,47,0.00,,,0.00,meteohub,2013-06-21 14:32:00,
2013-06-21 10:35:00,77.7,55.9,30.30,South,179,1.0,5.0,47,0.00,,,0.00,meteohub,2013-06-21 14:35:00,
2013-06-21 10:37:00,77.7,56.5,30.30,SSE,157,2.0,5.0,48,0.00,,,0.00,meteohub,2013-06-21 14:37:00,
2013-06-21 10:42:00,77.7,58.1,30.30,ENE,74,2.0,5.0,51,0.00,,,0.00,meteohub,2013-06-21 14:42:00,
2013-06-21 10:47:00,77.7,55.9,30.30,SSW,211,0.0,5.0,47,0.00,,,0.00,meteohub,2013-06-21 14:47:00,
2013-06-21 10:52:00,78.1,55.0,30.30,ESE,121,3.0,5.0,45,0.00,,,0.00,meteohub,2013-06-21 14:52:00,
2013-06-21 10:57:00,78.4,54.7,30.30,ESE,114,0.0,5.0,44,0.00,,,0.00,meteohub,2013-06-21 14:57:00,
2013-06-21 11:02:00,78.8,58.1,30.30,North,355,0.0,4.0,49,0.00,,,0.00,meteohub,2013-06-21 15:02:00,
2013-06-21 11:07:00,79.0,58.1,30.30,WSW,255,1.0,4.0,49,0.00,,,0.00,meteohub,2013-06-21 15:07:00,
2013-06-21 11:12:00,79.2,55.4,30.31,SSE,149,1.0,4.0,44,0.00,,,0.00,meteohub,2013-06-21 15:12:00,
2013-06-21 11:17:00,79.5,57.6,30.31,South,182,2.0,5.0,47,0.00,,,0.00,meteohub,2013-06-21 15:17:00,
2013-06-21 11:22:00,80.1,56.1,30.30,ENE,76,0.0,5.0,44,0.00,,,0.00,meteohub,2013-06-21 15:22:00,
2013-06-21 11:27:00,80.1,58.1,30.30,East,80,1.0,5.0,47,0.00,,,0.00,meteohub,2013-06-21 15:27:00,
2013-06-21 11:32:00,80.4,55.2,30.30,SW,220,1.0,5.0,42,0.00,,,0.00,meteohub,2013-06-21 15:32:00,
2013-06-21 11:37:00,80.6,58.5,30.30,SSE,149,1.0,3.0,47,0.00,,,0.00,meteohub,2013-06-21 15:37:00,
2013-06-21 11:42:00,80.8,55.6,30.30,SSE,165,3.0,5.0,42,0.00,,,0.00,meteohub,2013-06-21 15:42:00,
2013-06-21 11:47:00,80.8,58.6,30.30,SSE,160,1.0,5.0,47,0.00,,,0.00,meteohub,2013-06-21 15:47:00,
2013-06-21 11:52:00,81.0,58.8,30.30,NE,47,1.0,4.0,47,0.00,,,0.00,meteohub,2013-06-21 15:52:00,
2013-06-21 11:57:00,81.3,60.3,30.30,NE,45,0.0,4.0,49,0.00,,,0.00,meteohub,2013-06-21 15:57:00,
2013-06-21 12:02:00,81.1,59.5,30.30,NNE,26,2.0,3.0,48,0.00,,,0.00,meteohub,2013-06-21 16:02:00,
2013-06-21 12:07:00,81.1,61.9,30.30,West,277,1.0,3.0,52,0.00,,,0.00,meteohub,2013-06-21 16:07:00,
2013-06-21 12:12:00,81.0,58.8,30.30,ESE,117,3.0,4.0,47,0.00,,,0.00,meteohub,2013-06-21 16:12:00,
2013-06-21 12:17:00,81.1,61.9,30.30,SE,138,0.0,4.0,52,0.00,,,0.00,meteohub,2013-06-21 16:17:00,
2013-06-21 12:23:00,81.3,61.0,30.30,SW,232,3.0,3.0,50,0.00,,,0.00,meteohub,2013-06-21 16:23:00,
2013-06-21 12:27:00,81.3,61.5,30.30,West,267,0.0,7.0,51,0.00,,,0.00,meteohub,2013-06-21 16:27:00,
2013-06-21 12:33:00,81.7,58.8,30.30,East,87,0.0,7.0,46,0.00,,,0.00,meteohub,2013-06-21 16:33:00,
2013-06-21 12:38:00,81.5,59.4,30.30,SW,224,2.0,5.0,47,0.00,,,0.00,meteohub,2013-06-21 16:38:00,
2013-06-21 12:43:00,81.5,59.4,30.30,SSE,148,1.0,7.0,47,0.00,,,0.00,meteohub,2013-06-21 16:43:00,
2013-06-21 12:48:00,81.3,59.2,30.29,SSE,158,4.0,7.0,47,0.00,,,0.00,meteohub,2013-06-21 16:48:00,
2013-06-21 12:53:00,81.7,60.1,30.29,SSE,160,1.0,7.0,48,0.00,,,0.00,meteohub,2013-06-21 16:53:00,
2013-06-21 12:58:00,81.5,58.6,30.30,ESE,117,0.0,7.0,46,0.00,,,0.00,meteohub,2013-06-21 16:58:00,
2013-06-21 13:04:00,81.3,58.6,30.30,NE,35,1.0,5.0,46,0.00,,,0.00,meteohub,2013-06-21 17:04:00,
2013-06-21 13:10:00,81.1,59.0,30.30,WNW,300,1.0,5.0,47,0.00,,,0.00,meteohub,2013-06-21 17:10:00,
2013-06-21 13:15:00,81.1,58.5,30.30,South,180,1.0,5.0,46,0.00,,,0.00,meteohub,2013-06-21 17:15:00,
2013-06-21 13:20:00,81.1,60.1,30.30,West,271,1.0,4.0,49,0.00,,,0.00,meteohub,2013-06-21 17:20:00,
2013-06-21 13:27:00,81.1,57.7,30.29,West,262,0.0,4.0,45,0.00,,,0.00,meteohub,2013-06-21 17:27:00,
2013-06-21 13:32:00,81.1,57.7,30.29,WSW,252,2.0,5.0,45,0.00,,,0.00,meteohub,2013-06-21 17:32:00,
2013-06-21 13:37:00,81.1,59.0,30.29,NNW,328,3.0,5.0,47,0.00,,,0.00,meteohub,2013-06-21 17:37:00,
2013-06-21 13:42:00,80.8,59.9,30.29,North,355,2.0,4.0,49,0.00,,,0.00,meteohub,2013-06-21 17:42:00,
2013-06-21 13:46:00,80.8,58.1,30.29,SSE,159,0.0,4.0,46,0.00,,,0.00,meteohub,2013-06-21 17:46:00,
2013-06-21 13:47:00,81.0,59.4,30.29,East,91,0.0,4.0,48,0.00,,,0.00,meteohub,2013-06-21 17:47:00,
2013-06-21 13:48:00,81.0,58.8,30.29,East,91,1.0,4.0,47,0.00,,,0.00,meteohub,2013-06-21 17:48:00,
2013-06-21 13:53:00,81.3,57.9,30.29,NE,41,1.0,4.0,45,0.00,,,0.00,meteohub,2013-06-21 17:53:00,
2013-06-21 13:59:00,81.7,58.8,30.28,NNE,14,0.0,4.0,46,0.00,,,0.00,meteohub,2013-06-21 17:59:00,
2013-06-21 14:04:00,81.7,60.1,30.28,ESE,103,2.0,4.0,48,0.00,,,0.00,meteohub,2013-06-21 18:04:00,
2013-06-21 14:09:00,81.9,57.7,30.28,SSE,166,3.0,4.0,44,0.00,,,0.00,meteohub,2013-06-21 18:09:00,
2013-06-21 14:15:00,81.9,60.3,30.28,SSE,152,3.0,6.0,48,0.00,,,0.00,meteohub,2013-06-21 18:15:00,
2013-06-21 14:20:00,81.9,60.8,30.27,SE,143,2.0,8.0,49,0.00,,,0.00,meteohub,2013-06-21 18:20:00,
2013-06-21 14:23:00,81.9,57.7,30.28,SSE,163,4.0,8.0,44,0.00,,,0.00,meteohub,2013-06-21 18:23:00,
2013-06-21 14:24:00,81.9,58.5,30.28,North,5,2.0,8.0,45,0.00,,,0.00,meteohub,2013-06-21 18:24:00,
2013-06-21 14:29:00,82.0,57.9,30.28,ESE,105,2.0,8.0,44,0.00,,,0.00,meteohub,2013-06-21 18:29:00,
2013-06-21 14:34:00,81.9,58.5,30.28,SW,232,0.0,8.0,45,0.00,,,0.00,meteohub,2013-06-21 18:34:00,
2013-06-21 14:39:00,81.9,59.0,30.28,NE,49,1.0,7.0,46,0.00,,,0.00,meteohub,2013-06-21 18:39:00,
2013-06-21 14:44:00,81.9,59.7,30.28,West,270,0.0,7.0,47,0.00,,,0.00,meteohub,2013-06-21 18:44:00,
2013-06-21 14:46:00,81.9,55.9,30.28,ESE,108,2.0,7.0,41,0.00,,,0.00,meteohub,2013-06-21 18:46:00,
2013-06-21 14:47:00,81.9,59.7,30.28,SSE,155,0.0,7.0,47,0.00,,,0.00,meteohub,2013-06-21 18:47:00,
2013-06-21 14:48:00,82.0,58.6,30.28,SSE,167,2.0,7.0,45,0.00,,,0.00,meteohub,2013-06-21 18:48:00,
2013-06-21 14:54:00,82.2,58.8,30.28,NNW,329,1.0,4.0,45,0.00,,,0.00,meteohub,2013-06-21 18:54:00,
2013-06-21 14:59:00,81.9,59.7,30.28,ENE,69,0.0,5.0,47,0.00,,,0.00,meteohub,2013-06-21 18:59:00,
2013-06-21 15:04:00,81.9,57.7,30.28,SW,217,2.0,5.0,44,0.00,,,0.00,meteohub,2013-06-21 19:04:00,
2013-06-21 15:09:00,81.7,58.3,30.28,SSE,148,0.0,5.0,45,0.00,,,0.00,meteohub,2013-06-21 19:09:00,
2013-06-21 15:14:00,81.7,58.8,30.28,NNW,348,1.0,5.0,46,0.00,,,0.00,meteohub,2013-06-21 19:14:00,
2013-06-21 15:19:00,81.7,58.8,30.28,South,188,1.0,4.0,46,0.00,,,0.00,meteohub,2013-06-21 19:19:00,
2013-06-21 15:20:00,81.7,57.0,30.28,SSE,168,3.0,4.0,43,0.00,,,0.00,meteohub,2013-06-21 19:20:00,
2013-06-21 15:25:00,81.7,59.5,30.28,NE,44,0.0,4.0,47,0.00,,,0.00,meteohub,2013-06-21 19:25:00,
2013-06-21 15:30:00,81.7,59.5,30.27,East,94,0.0,6.0,47,0.00,,,0.00,meteohub,2013-06-21 19:30:00,
2013-06-21 15:35:00,81.7,57.0,30.27,South,171,0.0,6.0,43,0.00,,,0.00,meteohub,2013-06-21 19:35:00,
2013-06-21 15:40:00,81.7,57.0,30.27,ESE,114,3.0,6.0,43,0.00,,,0.00,meteohub,2013-06-21 19:40:00,
2013-06-21 15:42:00,81.7,56.3,30.27,South,187,2.0,4.0,42,0.00,,,0.00,meteohub,2013-06-21 19:42:00,
2013-06-21 15:48:00,81.7,56.3,30.27,NNE,15,1.0,5.0,42,0.00,,,0.00,meteohub,2013-06-21 19:48:00,
2013-06-21 15:54:00,81.5,56.1,30.27,SE,143,0.0,5.0,42,0.00,,,0.00,meteohub,2013-06-21 19:54:00,
2013-06-21 15:59:00,81.3,57.4,30.27,South,180,0.0,5.0,44,0.00,,,0.00,meteohub,2013-06-21 19:59:00,
2013-06-21 16:04:00,81.5,58.6,30.27,SW,234,1.0,4.0,46,0.00,,,0.00,meteohub,2013-06-21 20:04:00,
2013-06-21 16:09:00,81.9,56.5,30.27,SSW,207,0.0,5.0,42,0.00,,,0.00,meteohub,2013-06-21 20:09:00,
2013-06-21 16:11:00,81.9,55.9,30.27,SSW,200,0.0,5.0,41,0.00,,,0.00,meteohub,2013-06-21 20:11:00,
2013-06-21 16:14:00,82.0,57.9,30.27,NE,49,2.0,5.0,44,0.00,,,0.00,meteohub,2013-06-21 20:14:00,
2013-06-21 16:19:00,82.2,57.6,30.27,South,182,0.0,4.0,43,0.00,,,0.00,meteohub,2013-06-21 20:19:00,
2013-06-21 16:24:00,82.6,57.7,30.27,SSE,157,1.0,4.0,43,0.00,,,0.00,meteohub,2013-06-21 20:24:00,
2013-06-21 16:29:00,82.4,55.6,30.27,South,175,1.0,4.0,40,0.00,,,0.00,meteohub,2013-06-21 20:29:00,
2013-06-21 16:34:00,82.2,54.9,30.27,North,355,1.0,5.0,39,0.00,,,0.00,meteohub,2013-06-21 20:34:00,
2013-06-21 16:39:00,82.2,55.6,30.26,NNE,13,3.0,5.0,40,0.00,,,0.00,meteohub,2013-06-21 20:39:00,
2013-06-21 16:45:00,82.4,54.3,30.26,ESE,118,3.0,4.0,38,0.00,,,0.00,meteohub,2013-06-21 20:45:00,
2013-06-21 16:50:00,82.4,54.3,30.26,East,96,3.0,4.0,38,0.00,,,0.00,meteohub,2013-06-21 20:50:00,
2013-06-21 16:55:00,82.2,57.6,30.26,SSW,194,5.0,7.0,43,0.00,,,0.00,meteohub,2013-06-21 20:55:00,
2013-06-21 17:00:00,82.0,52.5,30.26,SE,133,1.0,7.0,36,0.00,,,0.00,meteohub,2013-06-21 21:00:00,
2013-06-21 17:04:00,82.0,57.4,30.25,NNE,23,1.0,7.0,43,0.00,,,0.00,meteohub,2013-06-21 21:04:00,
2013-06-21 17:09:00,82.2,57.6,30.25,NNE,26,3.0,6.0,43,0.00,,,0.00,meteohub,2013-06-21 21:09:00,
2013-06-21 17:14:00,82.0,53.2,30.25,ESE,122,1.0,6.0,37,0.00,,,0.00,meteohub,2013-06-21 21:14:00,
2013-06-21 17:19:00,82.0,54.0,30.25,South,178,2.0,4.0,38,0.00,,,0.00,meteohub,2013-06-21 21:19:00,
2013-06-21 17:24:00,82.0,54.0,30.25,NE,56,0.0,4.0,38,0.00,,,0.00,meteohub,2013-06-21 21:24:00,
2013-06-21 17:29:00,81.9,55.9,30.25,NNE,25,2.0,5.0,41,0.00,,,0.00,meteohub,2013-06-21 21:29:00,
2013-06-21 17:34:00,81.9,54.5,30.25,NW,318,2.0,5.0,39,0.00,,,0.00,meteohub,2013-06-21 21:34:00,
2013-06-21 17:39:00,81.7,54.3,30.25,NE,37,1.0,5.0,39,0.00,,,0.00,meteohub,2013-06-21 21:39:00,
2013-06-21 17:44:00,81.5,52.7,30.25,South,169,0.0,5.0,37,0.00,,,0.00,meteohub,2013-06-21 21:44:00,
2013-06-21 17:50:00,81.3,51.1,30.25,SSW,206,3.0,5.0,35,0.00,,,0.00,meteohub,2013-06-21 21:50:00,
2013-06-21 17:55:00,81.1,53.1,30.25,South,188,0.0,6.0,38,0.00,,,0.00,meteohub,2013-06-21 21:55:00,
2013-06-21 18:00:00,81.1,52.3,30.25,East,82,0.0,6.0,37,0.00,,,0.00,meteohub,2013-06-21 22:00:00,
2013-06-21 18:05:00,81.0,54.3,30.25,SSE,158,1.0,6.0,40,0.00,,,0.00,meteohub,2013-06-21 22:05:00,
2013-06-21 18:10:00,81.0,53.6,30.25,ESE,117,1.0,6.0,39,0.00,,,0.00,meteohub,2013-06-21 22:10:00,
2013-06-21 18:15:00,80.8,54.1,30.25,SSE,155,1.0,6.0,40,0.00,,,0.00,meteohub,2013-06-21 22:15:00,
2013-06-21 18:20:00,80.8,52.9,30.25,ESE,106,0.0,4.0,38,0.00,,,0.00,meteohub,2013-06-21 22:20:00,
2013-06-21 18:25:00,80.8,51.3,30.25,ESE,106,0.0,3.0,36,0.00,,,0.00,meteohub,2013-06-21 22:25:00,
2013-06-21 18:30:00,80.8,52.9,30.25,SE,128,0.0,5.0,38,0.00,,,0.00,meteohub,2013-06-21 22:30:00,
2013-06-21 18:35:00,80.4,50.2,30.25,ESE,112,0.0,5.0,35,0.00,,,0.00,meteohub,2013-06-21 22:35:00,
2013-06-21 18:40:00,79.9,48.9,30.24,East,94,1.0,5.0,34,0.00,,,0.00,meteohub,2013-06-21 22:40:00,
2013-06-21 18:46:00,79.5,49.5,30.25,ESE,122,0.0,4.0,35,0.00,,,0.00,meteohub,2013-06-21 22:46:00,
2013-06-21 18:51:00,79.3,47.7,30.25,SE,133,1.0,4.0,33,0.00,,,0.00,meteohub,2013-06-21 22:51:00,
2013-06-21 18:56:00,79.3,50.0,30.25,ESE,107,0.0,6.0,36,0.00,,,0.00,meteohub,2013-06-21 22:56:00,
2013-06-21 19:01:00,79.2,48.4,30.25,SE,125,0.0,6.0,34,0.00,,,0.00,meteohub,2013-06-21 23:01:00,
2013-06-21 19:06:00,79.0,48.2,30.25,East,90,0.0,5.0,34,0.00,,,0.00,meteohub,2013-06-21 23:06:00,
2013-06-21 19:11:00,78.6,48.7,30.25,East,90,0.0,5.0,35,0.00,,,0.00,meteohub,2013-06-21 23:11:00,
2013-06-21 19:16:00,78.6,52.3,30.25,East,90,0.0,2.0,40,0.00,,,0.00,meteohub,2013-06-21 23:16:00,
2013-06-21 19:21:00,78.4,50.0,30.24,ESE,119,0.0,2.0,37,0.00,,,0.00,meteohub,2013-06-21 23:21:00,
2013-06-21 19:26:00,78.3,53.2,30.25,SSE,150,1.0,2.0,42,0.00,,,0.00,meteohub,2013-06-21 23:26:00,
2013-06-21 19:31:00,78.1,52.5,30.25,SSE,150,0.0,2.0,41,0.00,,,0.00,meteohub,2013-06-21 23:31:00,
2013-06-21 19:36:00,77.7,51.4,30.24,SSE,157,1.0,2.0,40,0.00,,,0.00,meteohub,2013-06-21 23:36:00,
2013-06-21 19:41:00,77.4,53.8,30.24,East,86,2.0,2.0,44,0.00,,,0.00,meteohub,2013-06-21 23:41:00,
2013-06-21 19:46:00,77.2,53.6,30.24,South,172,2.0,2.0,44,0.00,,,0.00,meteohub,2013-06-21 23:46:00,
2013-06-21 19:51:00,77.0,54.0,30.24,South,174,0.0,2.0,45,0.00,,,0.00,meteohub,2013-06-21 23:51:00,
2013-06-21 19:56:00,76.6,53.1,30.24,South,174,0.0,2.0,44,0.00,,,0.00,meteohub,2013-06-21 23:56:00,
2013-06-21 20:01:00,76.5,54.1,30.24,South,174,0.0,2.0,46,0.00,,,0.00,meteohub,2013-06-22 00:01:00,
2013-06-21 20:06:00,76.1,54.3,30.24,South,174,0.0,0.0,47,0.00,,,0.00,meteohub,2013-06-22 00:06:00,
2013-06-21 20:11:00,75.9,54.3,30.24,South,174,0.0,0.0,47,0.00,,,0.00,meteohub,2013-06-22 00:11:00,
2013-06-21 20:16:00,75.6,54.5,30.24,South,174,0.0,0.0,48,0.00,,,0.00,meteohub,2013-06-22 00:16:00,
2013-06-21 20:21:00,75.4,54.9,30.24,South,174,0.0,0.0,49,0.00,,,0.00,meteohub,2013-06-22 00:21:00,
2013-06-21 20:26:00,75.0,55.0,30.24,South,174,0.0,0.0,50,0.00,,,0.00,meteohub,2013-06-22 00:26:00,
2013-06-21 20:31:00,74.7,55.4,30.24,South,174,0.0,0.0,51,0.00,,,0.00,meteohub,2013-06-22 00:31:00,
2013-06-21 20:36:00,74.5,56.3,30.24,South,174,0.0,0.0,53,0.00,,,0.00,meteohub,2013-06-22 00:36:00,
2013-06-21 20:41:00,73.9,55.8,30.24,South,174,0.0,0.0,53,0.00,,,0.00,meteohub,2013-06-22 00:41:00,
2013-06-21 20:46:00,73.8,55.6,30.24,South,174,0.0,0.0,53,0.00,,,0.00,meteohub,2013-06-22 00:46:00,
2013-06-21 20:51:00,73.6,55.9,30.24,South,174,0.0,0.0,54,0.00,,,0.00,meteohub,2013-06-22 00:51:00,
2013-06-21 20:56:00,73.2,56.1,30.25,South,174,0.0,0.0,55,0.00,,,0.00,meteohub,2013-06-22 00:56:00,
2013-06-21 21:01:00,73.0,56.5,30.25,South,174,0.0,0.0,56,0.00,,,0.00,meteohub,2013-06-22 01:01:00,
2013-06-21 21:06:00,72.7,56.5,30.25,South,174,0.0,0.0,57,0.00,,,0.00,meteohub,2013-06-22 01:06:00,
2013-06-21 21:11:00,72.3,56.7,30.25,South,174,0.0,0.0,58,0.00,,,0.00,meteohub,2013-06-22 01:11:00,
2013-06-21 21:16:00,72.1,57.0,30.25,South,174,0.0,0.0,59,0.00,,,0.00,meteohub,2013-06-22 01:16:00,
2013-06-21 21:21:00,72.0,56.8,30.25,South,174,0.0,0.0,59,0.00,,,0.00,meteohub,2013-06-22 01:21:00,
2013-06-21 21:26:00,71.8,57.6,30.25,South,174,0.0,0.0,61,0.00,,,0.00,meteohub,2013-06-22 01:26:00,
2013-06-21 21:31:00,71.4,57.7,30.25,South,174,0.0,0.0,62,0.00,,,0.00,meteohub,2013-06-22 01:31:00,
2013-06-21 21:37:00,71.2,57.6,30.25,South,174,0.0,0.0,62,0.00,,,0.00,meteohub,2013-06-22 01:37:00,
2013-06-21 21:44:00,71.1,58.3,30.25,South,174,0.0,0.0,64,0.00,,,0.00,meteohub,2013-06-22 01:44:00,
2013-06-21 21:49:00,70.5,58.6,30.26,South,174,0.0,0.0,66,0.00,,,0.00,meteohub,2013-06-22 01:49:00,
2013-06-21 21:54:00,70.3,58.5,30.26,South,174,0.0,0.0,66,0.00,,,0.00,meteohub,2013-06-22 01:54:00,
2013-06-21 21:59:00,70.2,58.6,30.26,South,174,0.0,0.0,67,0.00,,,0.00,meteohub,2013-06-22 01:59:00,
2013-06-21 22:04:00,70.0,59.0,30.26,South,174,0.0,0.0,68,0.00,,,0.00,meteohub,2013-06-22 02:04:00,
2013-06-21 22:09:00,69.6,59.0,30.26,South,174,0.0,0.0,69,0.00,,,0.00,meteohub,2013-06-22 02:09:00,
2013-06-21 22:14:00,69.4,58.8,30.26,South,174,0.0,0.0,69,0.00,,,0.00,meteohub,2013-06-22 02:14:00,
2013-06-21 22:19:00,69.3,59.0,30.26,South,174,0.0,0.0,70,0.00,,,0.00,meteohub,2013-06-22 02:19:00,
2013-06-21 22:24:00,69.1,58.8,30.26,South,174,0.0,0.0,70,0.00,,,0.00,meteohub,2013-06-22 02:24:00,
2013-06-21 22:29:00,68.9,59.2,30.26,South,174,0.0,0.0,71,0.00,,,0.00,meteohub,2013-06-22 02:29:00,
2013-06-21 22:34:00,68.7,59.0,30.27,South,174,0.0,0.0,71,0.00,,,0.00,meteohub,2013-06-22 02:34:00,
2013-06-21 22:39:00,68.5,59.2,30.27,South,174,0.0,0.0,72,0.00,,,0.00,meteohub,2013-06-22 02:39:00,
2013-06-21 22:44:00,68.4,59.0,30.27,South,174,0.0,0.0,72,0.00,,,0.00,meteohub,2013-06-22 02:44:00,
2013-06-21 22:49:00,68.2,59.2,30.26,South,174,0.0,0.0,73,0.00,,,0.00,meteohub,2013-06-22 02:49:00,
2013-06-21 22:54:00,68.2,59.5,30.26,South,174,0.0,1.0,74,0.00,,,0.00,meteohub,2013-06-22 02:54:00,
2013-06-21 22:59:00,68.0,59.7,30.26,East,94,0.0,1.0,75,0.00,,,0.00,meteohub,2013-06-22 02:59:00,
2013-06-21 23:04:00,67.8,59.9,30.26,East,82,0.0,3.0,76,0.00,,,0.00,meteohub,2013-06-22 03:04:00,
2013-06-21 23:09:00,67.8,60.3,30.26,East,82,0.0,3.0,77,0.00,,,0.00,meteohub,2013-06-22 03:09:00,
2013-06-21 23:14:00,67.6,60.6,30.26,East,82,0.0,3.0,78,0.00,,,0.00,meteohub,2013-06-22 03:14:00,
2013-06-21 23:19:00,67.6,60.6,30.26,East,82,0.0,1.0,78,0.00,,,0.00,meteohub,2013-06-22 03:19:00,
2013-06-21 23:24:00,67.6,61.0,30.26,East,82,0.0,1.0,79,0.00,,,0.00,meteohub,2013-06-22 03:24:00,
2013-06-21 23:29:00,67.6,61.0,30.26,East,82,0.0,1.0,79,0.00,,,0.00,meteohub,2013-06-22 03:29:00,
2013-06-21 23:34:00,67.6,61.5,30.26,East,82,0.0,0.0,81,0.00,,,0.00,meteohub,2013-06-22 03:34:00,
2013-06-21 23:39:00,67.5,61.3,30.26,East,82,0.0,0.0,81,0.00,,,0.00,meteohub,2013-06-22 03:39:00,
2013-06-21 23:44:00,67.5,62.1,30.25,ESE,115,0.0,0.0,83,0.00,,,0.00,meteohub,2013-06-22 03:44:00,
2013-06-21 23:49:00,67.5,62.1,30.25,ESE,118,0.0,2.0,83,0.00,,,0.00,meteohub,2013-06-22 03:49:00,
2013-06-21 23:54:00,67.6,62.6,30.25,ESE,118,0.0,2.0,84,0.00,,,0.00,meteohub,2013-06-22 03:54:00,
2013-06-21 23:59:00,67.6,63.0,30.25,SSE,161,0.0,2.0,85,0.00,,,0.00,meteohub,2013-06-22 03:59:00,